User: anonymous   Login
Location: Krakow
(50.0830°N, 19.9170°E)
Time: 18:05:40
(UTC+02:00)
Language:

A-11 Canister half - Orbit

View from above orbital plane
View from above orbital plane
View from above satellite
View from above satellite

Ground track
Ground track

The orbit data is extracted from the following two-line orbital elements,

1    53U 60009E   24207.23139353 -.00000082  00000-0  24133-4 0  9995
2    53  47.2789 316.7238 0100816 190.2371 169.6362 12.17341251851134
Epoch (UTC): 25 July 2024 05:33:12
Eccentricity: 0.0100816
inclination: 47.2789°
perigee height: 1523 km
apogee height: 1684 km
right ascension of ascending node: 316.7238°
argument of perigee: 190.2371°
revolutions per day: 12.17341251
mean anomaly at epoch: 169.6362°
orbit number at epoch: 85113

The dashed part of the orbit path shows where the satellite is in the earth's shadow,  

DLR